STARLINK-1335, 45581

Orbit data source: Space-Track

STARLINK-1335, 45581 is a payload satellite owned by SpaceX/Seattle (US) in LEO that was launched on Wed, 22 Apr 2020 UTC via an FALCON 9 launch vehicle from the Air Force Eastern Test Range (AFETR). Payload-class satellites include a variety of spacecraft equipped with specific instruments for various scientific and technological missions. These include communications satellites like Starlink; space stations such as the ISS; scientific satellites like the Hubble; Earth observation satellites from companies like Planet Labs, Umbra, and HawkEye 360; GPS; miniature CubeSats for education and research; and military/defense satellites.

Loading next visibility...
Identifier
45581, 2020-025BC
Orbit
LEO
Country
Flag of USUS
Related business
Manufacturer
SpaceX/Seattle
Mission
Operational Commercial Communications
Bus & Motor
STARLINK, Unknown motor
Mass
260 kg wet, ~248 kg dry
Launch date (UTC)
2020-04-22 (5 years ago)
Launch vehicle
FALCON 9
Launch site
Air Force Eastern Test Range (AFETR)
Object type
Payload
Rocket body
Debris
Shape & HBR
Box + 1 Pan, 10.1 m
Radar Cross Section
13.562 m², Large (>1 m²)

Expand to show TLE details & history
Last TLE update: 1 day ago

TLE from 1 day ago
0 STARLINK-1335
1 45581U 20025BC  25287.50126348  .00000393  00000-0  45270-4 0  9992
2 45581  53.0549  12.8838 0001216  79.9879 280.1248 15.06382904303470
Epoch: 2025-10-14T12:01Z
TLE epoch observation values (Epoch: 2025-10-14T12:01:49.164Z)
Latitude
0.00004°
Longitude
169.14019°
Altitude
547.995 km
Speed
7.589 km/s
True Right ascension
00h 51m 32s
True Declination
0° 00' 00"
Sunlit
Object was in full shadow at epoch
Visualization orbit readout
Latitude
Unknown
Longitude
Unknown
Altitude
Unknown
Speed
Unknown
Apparent Right ascension
Unknown
Apparent Declination
Unknown
Sunlit
N/A
Visualization observer readout
Local Sidereal Time
09:01:40
Azimuth
Unknown
Elevation
Unknown
Doppler factor
Unknown
Orbital elements
Apogee altitude
548.377 km
Perigee altitude
546.692 km
Semi-major axis
6,925.672 km
Eccentricity
0.00012
Inclination
53.0549°
RAAN
12.8838°
Arg. of periapsis
79.9879°
True anomaly
280.11108°
Mean anomaly
280.1248°
Eccentric anomaly
280.11794°
Mean motion
3.76574 °/min
Orbital period
95.6 mins
BSTAR
0.00004527
Loading maneuver chart data...
Computing Atmospheric mass density...

Documentation

Showing up to 5 results
|